Location: Boiro
(42.6475°N, 8.8834°W)
Time: 15:21:06
(UTC+02:00)

Explorer 7 - Pass Details

Date: 01 July 2022
Orbit: 482 x 668 km, 50.3° (Epoch: 15 August)

Event Time Altitude Azimuth Distance (km) Brightness Sun altitude
Rises 23:40:58 0° 209° (SSW) 2,982 10.4 -12.5°
Reaches altitude 10° 23:43:29 10° 200° (SSW) 2,082 9.5 -12.8°
Maximum altitude 23:47:48 33° 137° (SE) 1,107 7.8 -13.3°
Drops below altitude 10° 23:52:08 10° 73° (ENE) 2,081 9.5 -13.8°
Sets 23:54:38 0° 64° (ENE) 2,981 10.4 -14.1°
